WJA717 CYZF-CYEG

Flight info

Callsign WJA717
Flight time 1h 20m
Altitude 35000
Route YZF DCT TETAG TETAG2
Aircraft B737/M-SDE2E3FGHIRWXY/LB1

Departure

Time 2026-04-29 21:54
Airport Yellowknife International Airport (CYZF)

Arrival

Time 2026-04-29 23:14
Airport Edmonton International Airport (CYEG)
Time Latitude Longitude Altitude Speed Heading
2026-04-29 21:42 62.47087 -114.43872 679 ft 0 kts 86°
2026-04-29 21:46 62.47087 -114.43888 679 ft 2 kts 77°
2026-04-29 21:46 62.47082 -114.43921 679 ft 2 kts 56°
2026-04-29 21:47 62.47070 -114.43943 678 ft 2 kts
2026-04-29 21:47 62.47055 -114.43942 679 ft 1 kts 340°
2026-04-29 21:47 62.47053 -114.43940 679 ft 0 kts 338°
2026-04-29 21:50 62.47067 -114.43953 678 ft 5 kts 336°
2026-04-29 21:50 62.47115 -114.43999 677 ft 9 kts 339°
2026-04-29 21:51 62.47177 -114.44022 674 ft 9 kts 355°
2026-04-29 21:51 62.47238 -114.44032 676 ft 9 kts 356°
2026-04-29 21:51 62.47323 -114.44171 681 ft 8 kts 275°
2026-04-29 21:52 62.47322 -114.44234 681 ft 0 kts 266°
2026-04-29 21:52 62.47321 -114.44274 682 ft 5 kts 265°
2026-04-29 21:53 62.47309 -114.44363 683 ft 7 kts 233°
2026-04-29 21:53 62.47260 -114.44385 681 ft 11 kts 177°
2026-04-29 21:53 62.46916 -114.44332 679 ft 90 kts 175°
2026-04-29 21:53 62.46047 -114.44190 686 ft 157 kts 173°
2026-04-29 21:54 62.44882 -114.44053 1284 ft 173 kts 173°
2026-04-29 21:54 62.43717 -114.43941 2524 ft 158 kts 175°
2026-04-29 21:54 62.42645 -114.43695 3622 ft 154 kts 174°
2026-04-29 21:54 62.41524 -114.43308 4173 ft 181 kts 171°
2026-04-29 21:55 62.40170 -114.42735 4438 ft 214 kts 179°
2026-04-29 21:55 62.38566 -114.42641 4782 ft 248 kts 180°
2026-04-29 21:55 62.36799 -114.42130 5518 ft 261 kts 183°
2026-04-29 21:55 62.34966 -114.42408 6392 ft 268 kts 188°
2026-04-29 21:56 62.33077 -114.42575 7300 ft 274 kts 185°
2026-04-29 21:56 62.31151 -114.42608 8251 ft 279 kts 183°
2026-04-29 21:56 62.29196 -114.42588 9175 ft 283 kts 183°
2026-04-29 21:56 62.27243 -114.42541 9823 ft 286 kts 182°
2026-04-29 21:57 62.25227 -114.42481 10222 ft 295 kts 182°
2026-04-29 21:57 62.23069 -114.42415 10429 ft 324 kts 182°
2026-04-29 21:57 62.20750 -114.42333 10958 ft 339 kts 182°
2026-04-29 21:57 62.18367 -114.42235 11675 ft 346 kts 182°
2026-04-29 21:58 62.15946 -114.42129 12574 ft 349 kts 182°
2026-04-29 21:58 62.13532 -114.42020 13461 ft 353 kts 182°
2026-04-29 21:58 62.11064 -114.41910 14311 ft 358 kts 183°
2026-04-29 21:58 62.08559 -114.41797 15144 ft 362 kts 183°
2026-04-29 21:59 62.06030 -114.41680 16003 ft 365 kts 183°
2026-04-29 21:59 62.03480 -114.41566 16849 ft 369 kts 183°
2026-04-29 21:59 62.00898 -114.41453 17675 ft 373 kts 184°
2026-04-29 21:59 61.98283 -114.41338 18492 ft 378 kts 184°
2026-04-29 22:00 61.95648 -114.41220 19205 ft 381 kts 184°
2026-04-29 22:00 61.92973 -114.41103 19858 ft 387 kts 184°
2026-04-29 22:00 61.90269 -114.40988 20562 ft 391 kts 184°
2026-04-29 22:00 61.87530 -114.40871 21249 ft 395 kts 184°
2026-04-29 22:01 61.84757 -114.40753 21854 ft 402 kts 184°
2026-04-29 22:01 61.81943 -114.40632 22555 ft 406 kts 184°
2026-04-29 22:01 61.79112 -114.40507 23245 ft 409 kts 184°
2026-04-29 22:01 61.76250 -114.40381 23860 ft 414 kts 184°
2026-04-29 22:02 61.73354 -114.40255 24352 ft 419 kts 184°
2026-04-29 22:02 61.70416 -114.40128 24829 ft 425 kts 184°
2026-04-29 22:02 61.67487 -114.40001 25294 ft 430 kts 184°
2026-04-29 22:02 61.64476 -114.39871 25779 ft 435 kts 184°
2026-04-29 22:03 61.61436 -114.39739 26249 ft 439 kts 184°
2026-04-29 22:03 61.58364 -114.39606 26707 ft 444 kts 184°
2026-04-29 22:03 61.55257 -114.39472 27135 ft 449 kts 184°
2026-04-29 22:03 61.52120 -114.39337 27574 ft 454 kts 184°
2026-04-29 22:04 61.48947 -114.39200 28014 ft 458 kts 184°
2026-04-29 22:04 61.45748 -114.39062 28445 ft 462 kts 184°
2026-04-29 22:04 61.42515 -114.38922 28867 ft 467 kts 184°
2026-04-29 22:04 61.39255 -114.38782 29276 ft 471 kts 184°
2026-04-29 22:05 61.35961 -114.38641 29674 ft 475 kts 184°
2026-04-29 22:05 61.32650 -114.38499 30064 ft 479 kts 184°
2026-04-29 22:05 61.25943 -114.38212 30717 ft 484 kts 184°
2026-04-29 22:06 61.22566 -114.38067 30999 ft 486 kts 184°
2026-04-29 22:06 61.15686 -114.37787 31213 ft 502 kts 184°
2026-04-29 22:06 61.12188 -114.37638 31556 ft 502 kts 184°
2026-04-29 22:07 61.08694 -114.37485 32030 ft 501 kts 184°
2026-04-29 22:07 61.05222 -114.37331 32527 ft 498 kts 184°
2026-04-29 22:07 61.01776 -114.37180 33015 ft 495 kts 184°
2026-04-29 22:07 60.98336 -114.37033 33462 ft 493 kts 184°
2026-04-29 22:08 60.94904 -114.36889 33846 ft 493 kts 184°
2026-04-29 22:08 60.91524 -114.36750 34159 ft 493 kts 183°
2026-04-29 22:08 60.88110 -114.36609 34587 ft 488 kts 183°
2026-04-29 22:08 60.84725 -114.36468 34979 ft 486 kts 183°
2026-04-29 22:09 60.81323 -114.36331 35007 ft 492 kts 183°
2026-04-29 22:09 60.74470 -114.36055 35012 ft 491 kts 183°
2026-04-29 22:10 60.67696 -114.35772 35006 ft 484 kts 183°
2026-04-29 22:10 60.60960 -114.35497 35015 ft 484 kts 183°
2026-04-29 22:11 60.54233 -114.35226 35015 ft 484 kts 183°
2026-04-29 22:11 60.47462 -114.34954 34979 ft 484 kts 183°
2026-04-29 22:12 60.40710 -114.34685 35006 ft 487 kts 183°
2026-04-29 22:12 60.33911 -114.34414 35020 ft 490 kts 183°
2026-04-29 22:13 60.27071 -114.34141 35016 ft 493 kts 183°
2026-04-29 22:13 60.20190 -114.33867 35009 ft 495 kts 183°
2026-04-29 22:14 60.13296 -114.33592 35000 ft 496 kts 183°
2026-04-29 22:14 60.06409 -114.33318 35001 ft 495 kts 183°
2026-04-29 22:15 59.99534 -114.33047 34999 ft 494 kts 183°
2026-04-29 22:15 59.92678 -114.32779 34995 ft 492 kts 183°
2026-04-29 22:16 59.85834 -114.32512 35003 ft 491 kts 183°
2026-04-29 22:16 59.79008 -114.32247 35001 ft 490 kts 183°
2026-04-29 22:17 59.72201 -114.31985 35002 ft 489 kts 183°
2026-04-29 22:17 59.65391 -114.31724 35012 ft 490 kts 183°
2026-04-29 22:18 59.58620 -114.31465 35016 ft 490 kts 182°
2026-04-29 22:18 59.51799 -114.31205 35010 ft 490 kts 182°
2026-04-29 22:19 59.44977 -114.30945 35022 ft 490 kts 182°
2026-04-29 22:19 59.38149 -114.30687 35018 ft 491 kts 182°
2026-04-29 22:20 59.31324 -114.30429 35024 ft 490 kts 183°
2026-04-29 22:20 59.24517 -114.30174 35023 ft 490 kts 183°
2026-04-29 22:21 59.17696 -114.29918 35038 ft 490 kts 183°
2026-04-29 22:21 59.10885 -114.29664 35037 ft 489 kts 182°
2026-04-29 22:22 59.04081 -114.29414 34995 ft 489 kts 182°
2026-04-29 22:22 58.97285 -114.29161 35041 ft 488 kts 182°
2026-04-29 22:23 58.90489 -114.28911 35058 ft 489 kts 182°
2026-04-29 22:23 58.83676 -114.28662 35054 ft 490 kts 182°
2026-04-29 22:24 58.76857 -114.28413 35064 ft 490 kts 182°
2026-04-29 22:24 58.70029 -114.28165 35070 ft 491 kts 182°
2026-04-29 22:25 58.63249 -114.27919 35065 ft 491 kts 182°
2026-04-29 22:25 58.56412 -114.27672 35068 ft 491 kts 182°
2026-04-29 22:26 58.49579 -114.27426 35068 ft 491 kts 182°
2026-04-29 22:26 58.42698 -114.27179 35068 ft 491 kts 182°
2026-04-29 22:27 58.35930 -114.26937 35071 ft 490 kts 182°
2026-04-29 22:27 58.29119 -114.26695 35078 ft 489 kts 182°
2026-04-29 22:28 58.22304 -114.26455 35084 ft 490 kts 182°
2026-04-29 22:28 58.15473 -114.26215 35087 ft 491 kts 182°
2026-04-29 22:29 58.09793 -114.26015 35089 ft 491 kts 182°
2026-04-29 22:29 58.01846 -114.25736 35092 ft 492 kts 182°
2026-04-29 22:30 57.95008 -114.25498 35103 ft 492 kts 182°
2026-04-29 22:30 57.88172 -114.25260 35102 ft 491 kts 182°
2026-04-29 22:31 57.81334 -114.25024 35124 ft 491 kts 181°
2026-04-29 22:31 57.75663 -114.24828 35117 ft 490 kts 181°
2026-04-29 22:32 57.68861 -114.24594 35127 ft 488 kts 181°
2026-04-29 22:32 57.60973 -114.24323 35127 ft 487 kts 182°
2026-04-29 22:33 57.55353 -114.24132 35140 ft 486 kts 182°
2026-04-29 22:33 57.48610 -114.23903 35145 ft 484 kts 181°
2026-04-29 22:34 57.41895 -114.23675 35149 ft 482 kts 181°
2026-04-29 22:34 57.35195 -114.23449 35154 ft 481 kts 181°
2026-04-29 22:35 57.28522 -114.23225 35159 ft 479 kts 181°
2026-04-29 22:35 57.21856 -114.23002 35174 ft 478 kts 182°
2026-04-29 22:36 57.15211 -114.22780 35157 ft 477 kts 182°
2026-04-29 22:36 57.08591 -114.22560 35161 ft 475 kts 182°
2026-04-29 22:37 57.02039 -114.22343 35164 ft 474 kts 182°
2026-04-29 22:37 56.95444 -114.22128 35170 ft 474 kts 182°
2026-04-29 22:38 56.88836 -114.21912 35174 ft 475 kts 182°
2026-04-29 22:38 56.82242 -114.21693 35176 ft 474 kts 182°
2026-04-29 22:39 56.75652 -114.21477 35184 ft 473 kts 182°
2026-04-29 22:39 56.69077 -114.21263 35190 ft 473 kts 182°
2026-04-29 22:40 56.62478 -114.21051 35188 ft 479 kts 181°
2026-04-29 22:40 56.55730 -114.20838 35214 ft 490 kts 181°
2026-04-29 22:41 56.48957 -114.20618 35198 ft 491 kts 181°
2026-04-29 22:41 56.42130 -114.20396 35203 ft 491 kts 181°
2026-04-29 22:42 56.35299 -114.20176 35197 ft 491 kts 181°
2026-04-29 22:42 56.28480 -114.19957 35175 ft 490 kts 181°
2026-04-29 22:43 56.21666 -114.19741 35205 ft 490 kts 181°
2026-04-29 22:43 56.14848 -114.19527 35226 ft 490 kts 181°
2026-04-29 22:44 56.08029 -114.19313 35221 ft 490 kts 181°
2026-04-29 22:44 56.01250 -114.19099 35227 ft 490 kts 181°
2026-04-29 22:45 55.94441 -114.18886 35224 ft 490 kts 181°
2026-04-29 22:45 55.87630 -114.18674 35223 ft 489 kts 181°
2026-04-29 22:46 55.80835 -114.18462 35235 ft 488 kts 181°
2026-04-29 22:46 55.74055 -114.18252 35245 ft 487 kts 181°
2026-04-29 22:47 55.67284 -114.18043 35234 ft 486 kts 181°
2026-04-29 22:47 55.60533 -114.17831 35233 ft 485 kts 180°
2026-04-29 22:48 55.53838 -114.17628 35237 ft 485 kts 181°
2026-04-29 22:48 55.47093 -114.17424 35251 ft 484 kts 181°
2026-04-29 22:49 55.40354 -114.17219 35243 ft 484 kts 181°
2026-04-29 22:49 55.33622 -114.17015 35254 ft 484 kts 181°
2026-04-29 22:50 55.26900 -114.16812 35253 ft 483 kts 181°
2026-04-29 22:50 55.20219 -114.16610 35266 ft 483 kts 181°
2026-04-29 22:51 55.13510 -114.16408 35253 ft 482 kts 181°
2026-04-29 22:51 55.03466 -114.16108 35263 ft 481 kts 181°
2026-04-29 22:52 54.96776 -114.15908 35250 ft 480 kts 180°
2026-04-29 22:52 54.90104 -114.15709 35269 ft 480 kts 181°
2026-04-29 22:53 54.83480 -114.15515 35261 ft 479 kts 181°
2026-04-29 22:53 54.76818 -114.15319 35266 ft 479 kts 181°
2026-04-29 22:54 54.73461 -114.15221 34705 ft 485 kts 181°
2026-04-29 22:54 54.70088 -114.15123 33979 ft 485 kts 181°
2026-04-29 22:54 54.66711 -114.15023 33127 ft 485 kts 181°
2026-04-29 22:54 54.63345 -114.14924 32326 ft 484 kts 181°
2026-04-29 22:55 54.59976 -114.14825 31539 ft 483 kts 181°
2026-04-29 22:55 54.56648 -114.14726 30995 ft 476 kts 181°
2026-04-29 22:55 54.53393 -114.14629 30397 ft 471 kts 181°
2026-04-29 22:55 54.50135 -114.14534 29747 ft 466 kts 181°
2026-04-29 22:56 54.46918 -114.14440 29142 ft 459 kts 181°
2026-04-29 22:56 54.43740 -114.14347 28546 ft 453 kts 181°
2026-04-29 22:56 54.40606 -114.14257 27960 ft 448 kts 181°
2026-04-29 22:56 54.37511 -114.14168 27372 ft 443 kts 181°
2026-04-29 22:57 54.34444 -114.14081 26750 ft 439 kts 181°
2026-04-29 22:57 54.31410 -114.13994 26203 ft 434 kts 180°
2026-04-29 22:57 54.28398 -114.13907 25630 ft 431 kts 180°
2026-04-29 22:57 54.25416 -114.13822 25056 ft 427 kts 180°
2026-04-29 22:58 54.22449 -114.13738 24477 ft 425 kts 180°
2026-04-29 22:58 54.19503 -114.13654 23930 ft 422 kts 180°
2026-04-29 22:58 54.16571 -114.13570 23285 ft 420 kts 180°
2026-04-29 22:58 54.13664 -114.13487 22668 ft 416 kts 180°
2026-04-29 22:59 54.10826 -114.13406 22111 ft 412 kts 180°
2026-04-29 22:59 54.07979 -114.12982 21538 ft 409 kts 170°
2026-04-29 22:59 54.05235 -114.11783 20983 ft 406 kts 160°
2026-04-29 22:59 54.02668 -114.09857 20428 ft 402 kts 153°
2026-04-29 23:00 54.00175 -114.07750 19889 ft 399 kts 152°
2026-04-29 23:00 53.97687 -114.05672 19320 ft 397 kts 153°
2026-04-29 23:00 53.95215 -114.03651 18906 ft 393 kts 153°
2026-04-29 23:00 53.92741 -114.01669 18505 ft 393 kts 154°
2026-04-29 23:01 53.90271 -113.99700 18051 ft 393 kts 154°
2026-04-29 23:01 53.87797 -113.97728 17625 ft 392 kts 154°
2026-04-29 23:01 53.85335 -113.95764 17207 ft 391 kts 154°
2026-04-29 23:01 53.82883 -113.93806 16799 ft 389 kts 154°
2026-04-29 23:02 53.80443 -113.91852 16399 ft 387 kts 154°
2026-04-29 23:02 53.78015 -113.89908 16003 ft 385 kts 154°
2026-04-29 23:02 53.75596 -113.87972 15486 ft 385 kts 154°
2026-04-29 23:02 53.73200 -113.86058 15059 ft 377 kts 154°
2026-04-29 23:03 53.70845 -113.84180 14665 ft 370 kts 154°
2026-04-29 23:03 53.68536 -113.82340 14292 ft 366 kts 154°
2026-04-29 23:03 53.66238 -113.80511 13912 ft 364 kts 154°
2026-04-29 23:03 53.63952 -113.78693 13502 ft 362 kts 154°
2026-04-29 23:04 53.61676 -113.76886 13111 ft 360 kts 154°
2026-04-29 23:04 53.59422 -113.75099 12742 ft 357 kts 154°
2026-04-29 23:04 53.57195 -113.73256 12376 ft 355 kts 152°
2026-04-29 23:04 53.55041 -113.71369 12020 ft 353 kts 152°
2026-04-29 23:05 53.52844 -113.69432 11656 ft 351 kts 152°
2026-04-29 23:05 53.50715 -113.67573 11312 ft 349 kts 153°
2026-04-29 23:05 53.48569 -113.65713 10987 ft 345 kts 153°
2026-04-29 23:05 53.46444 -113.63950 10631 ft 337 kts 160°
2026-04-29 23:06 53.44187 -113.63300 10284 ft 326 kts 185°
2026-04-29 23:06 53.42016 -113.64046 9936 ft 313 kts 205°
2026-04-29 23:06 53.40186 -113.65723 9954 ft 290 kts 218°
2026-04-29 23:06 53.38580 -113.67610 9790 ft 278 kts 220°
2026-04-29 23:07 53.37015 -113.69512 9420 ft 276 kts 220°
2026-04-29 23:07 53.35472 -113.71395 9091 ft 273 kts 219°
2026-04-29 23:07 53.33932 -113.73245 8696 ft 273 kts 219°
2026-04-29 23:07 53.32386 -113.75083 8320 ft 272 kts 219°
2026-04-29 23:08 53.30836 -113.76914 7919 ft 272 kts 218°
2026-04-29 23:08 53.29286 -113.78716 7597 ft 270 kts 218°
2026-04-29 23:08 53.27753 -113.80490 7319 ft 268 kts 217°
2026-04-29 23:08 53.26224 -113.82261 7044 ft 266 kts 217°
2026-04-29 23:09 53.24715 -113.84004 6782 ft 263 kts 217°
2026-04-29 23:09 53.23108 -113.85410 6482 ft 263 kts 194°
2026-04-29 23:09 53.21323 -113.85383 6228 ft 262 kts 165°
2026-04-29 23:09 53.19719 -113.84009 5846 ft 262 kts 130°
2026-04-29 23:10 53.18666 -113.81608 5653 ft 255 kts 123°
2026-04-29 23:10 53.17904 -113.78998 5332 ft 248 kts 95°
2026-04-29 23:10 53.18159 -113.76310 5120 ft 231 kts 57°
2026-04-29 23:10 53.19074 -113.74197 5055 ft 220 kts 50°
2026-04-29 23:11 53.20073 -113.72373 4930 ft 210 kts 37°
2026-04-29 23:11 53.21230 -113.70894 4663 ft 203 kts 33°
2026-04-29 23:11 53.22349 -113.69577 4390 ft 196 kts 31°
2026-04-29 23:11 53.23450 -113.68297 4132 ft 190 kts 32°
2026-04-29 23:12 53.24517 -113.67053 3881 ft 183 kts 32°
2026-04-29 23:12 53.25533 -113.65868 3619 ft 172 kts 31°
2026-04-29 23:12 53.26485 -113.64758 3457 ft 154 kts 33°
2026-04-29 23:12 53.27327 -113.63776 3210 ft 146 kts 33°
2026-04-29 23:13 53.28150 -113.62819 3038 ft 143 kts 33°
2026-04-29 23:13 53.28975 -113.61858 2838 ft 145 kts 32°
2026-04-29 23:13 53.29790 -113.60906 2622 ft 142 kts 32°
2026-04-29 23:13 53.30577 -113.59986 2428 ft 135 kts 34°
2026-04-29 23:14 53.31318 -113.59122 2340 ft 119 kts 34°
2026-04-29 23:14 53.31759 -113.58600 2338 ft 30 kts 36°
2026-04-29 23:14 53.31804 -113.58508 2338 ft 5 kts 97°
2026-04-29 23:14 53.31768 -113.58479 2341 ft 11 kts 167°
2026-04-29 23:15 53.31672 -113.58451 2341 ft 14 kts 170°
2026-04-29 23:15 53.31576 -113.58429 2341 ft 14 kts 182°
2026-04-29 23:15 53.31493 -113.58502 2341 ft 14 kts 215°
2026-04-29 23:15 53.31396 -113.58615 2341 ft 19 kts 214°
2026-04-29 23:16 53.31279 -113.58749 2341 ft 22 kts 215°
2026-04-29 23:16 53.31152 -113.58899 2341 ft 20 kts 215°
2026-04-29 23:16 53.31044 -113.58866 2341 ft 15 kts 130°
2026-04-29 23:16 53.30959 -113.58794 2341 ft 14 kts 174°
2026-04-29 23:17 53.30864 -113.58803 2341 ft 13 kts 199°
2026-04-29 23:17 53.30775 -113.58833 2341 ft 13 kts 179°
2026-04-29 23:17 53.30689 -113.58795 2341 ft 13 kts 154°
2026-04-29 23:17 53.30617 -113.58704 2341 ft 13 kts 134°
2026-04-29 23:18 53.30585 -113.58608 2341 ft 6 kts 74°
2026-04-29 23:18 53.30612 -113.58557 2341 ft 6 kts 44°
2026-04-29 23:18 53.30629 -113.58529 2341 ft 1 kts 43°
2026-04-29 23:18 53.30631 -113.58525 2341 ft 0 kts 43°